GFSSW_850_dewp_351.txt.gz
Dewpoint
-18 -20 -24 -25 -26 -26 -26 -26 -26 -26 -26 -24 -23 -17 -20 -26 -27 -14 -3 -4 -5 -3 -15 -7 4 5 4 4 1 1 3 3 2 -2 -3 -7 -8 -9 -9 -7 -6 -3 -2 5 10
-6 -17 -23 -24 -24 -24 -24 -24 -25 -25 -24 -22 -9 1 -1 -6 -9 -4 -6 -4 1 1 2 1 2 4 3 1 1 2 3 0 -4 -5 -5 -6 -7 -8 -8 -8 -6 -2 1 9 10
-10 -17 -20 -22 -22 -22 -23 -23 -24 -24 -23 -19 1 1 2 1 -0 -4 3 4 4 5 5 3 2 2 2 -2 -1 -0 2 -4 -4 -5 -5 -5 -6 -7 -7 -7 -7 -4 5 9 10
-6 -7 -15 -21 -21 -21 -22 -22 -23 -23 -22 -10 0 -5 2 2 -5 2 5 4 3 1 2 3 2 2 1 -1 -4 -2 -4 -4 -4 -4 -4 -5 -6 -6 -6 -5 -6 -5 7 9 10
-1 -3 -8 -20 -20 -21 -21 -23 -23 -22 -21 -19 -14 -2 2 0 -1 -4 -3 -0 -1 -2 2 3 2 1 1 -0 -4 -4 -5 -7 -4 -5 -5 -6 -5 -5 -6 -5 -6 1 8 9 10
-1 -4 -12 -18 -20 -20 -21 -22 -22 -21 -19 -16 -10 0 1 -1 -3 -3 -2 -2 -2 -2 -1 4 4 0 -1 -1 -4 -5 -6 -6 -6 -5 -5 -5 -5 -5 -6 -3 -1 5 7 9 9
-4 -7 -12 -17 -19 -20 -22 -21 -23 -20 -16 -13 -8 -0 1 -1 -4 -2 -1 -1 -1 -1 -2 0 2 4 -1 -4 -4 -6 -5 -6 -6 -6 -5 -5 -4 -3 -4 -3 2 4 6 8 9
-9 -14 -16 -16 -18 -20 -20 -21 -22 -17 -13 -10 -7 -0 1 -2 -1 -1 -2 -1 -1 -1 -1 -1 1 4 4 -3 -5 -5 -5 -3 -6 -7 -6 -4 -3 -5 -4 -3 -1 3 6 7 8
-16 -17 -16 -17 -19 -19 -18 -20 -16 -13 -11 -8 -1 1 -1 -3 -3 -3 -2 -2 -1 -1 -2 -0 0 2 2 1 -2 -4 -3 -4 -5 -7 -6 -3 -4 -6 -4 -4 -3 -0 5 7 7
-17 -16 -16 -17 -19 -17 -17 -12 -12 -10 -9 -5 -0 -1 -2 -5 -4 -3 -2 -2 -3 -3 -1 -0 0 3 3 3 3 -3 -4 -5 -4 -3 -4 -2 -4 -3 -3 -4 -4 -3 1 6 8
-17 -16 -18 -17 -19 -16 -14 -6 -5 -6 -3 -3 -3 -3 -4 -5 -4 -2 -1 -2 -1 -3 -1 -1 1 3 4 0 -1 -5 -6 -5 -6 -4 -2 -3 -3 -4 -3 -4 -4 -4 -3 4 6
-16 -16 -16 -18 -19 -14 -4 -3 -1 -1 -0 -3 -4 -4 -3 -3 -3 -3 -0 -0 -0 -2 -4 3 2 -4 -3 -1 1 2 1 -5 -5 -2 -3 -2 -3 -4 -3 -2 -1 -2 -3 3 3
-16 -14 -16 -18 -16 -5 -2 -3 -1 -0 -0 -4 -6 -6 -4 -4 -4 -2 -1 0 -0 -1 -1 2 -2 -5 -2 2 5 4 2 -4 3 -1 -2 -1 -0 1 -3 -2 -1 1 -0 0 2
-13 -13 -16 -19 -8 -8 -5 -9 -4 -1 -0 -9 -8 -5 -6 -5 -2 -1 1 2 2 1 -1 0 0 2 4 3 2 5 2 -1 -0 -0 2 -3 2 -0 -1 2 -1 -1 -0 1 0
-13 -13 -16 -18 -16 -4 -10 -8 -3 -0 1 -9 -8 -6 -7 -5 -5 0 2 1 2 1 0 -1 -1 3 3 -1 -0 3 0 1 -0 -1 1 0 3 -2 -2 1 -1 -2 -1 0 -0
-13 -14 -17 -15 -11 -7 -10 -6 -1 1 -1 -8 -8 -6 -6 -7 -5 -1 2 1 1 3 -1 0 -3 -1 -1 -2 -2 1 1 3 3 1 3 2 1 -5 -0 0 -2 -2 -1 -0 -1
-14 -16 -19 -19 -12 -15 -9 -2 1 -1 -9 -5 -5 -5 -5 -5 -3 -4 2 3 3 4 3 -1 -1 -1 -0 -1 -1 -0 2 5 5 5 2 -1 -1 1 -2 -2 0 2 -1 -2 -3
-14 -17 -19 -17 -16 -14 -4 -2 -3 -6 -3 -6 -5 -5 -5 -3 -3 -1 -0 1 3 3 2 0 2 -1 -1 1 -0 0 0 1 -1 1 0 -1 2 -1 -4 -5 -3 -1 -2 -3 -3
-14 -17 -10 -17 -17 -12 -3 -2 -4 -3 -4 -2 -4 -5 -5 -5 -3 -2 0 0 1 2 4 4 2 -2 -1 -0 -1 0 4 -3 2 -0 1 -0 -2 -4 -6 -5 -4 -1 -2 -4 -3
-15 -15 -12 -16 -17 -7 -2 -5 -7 -7 -4 -3 -0 -4 -3 -3 -1 0 1 -0 -0 1 1 1 2 -2 1 1 1 -0 -3 1 2 1 -1 -2 -3 -2 -5 -4 -4 -2 -3 -5 -3
-11 -10 -13 -15 -13 -7 -2 -5 -6 -7 -5 -1 -1 -1 -3 -1 0 2 1 0 -0 1 1 0 3 -0 -1 1 3 1 2 1 -1 0 1 -4 -1 -2 -0 -1 -1 -2 -3 -5 -6
-9 -6 -13 -14 -4 -4 -5 -6 -6 -6 -6 -3 -3 -2 -3 -3 0 -1 0 1 -0 0 2 1 2 2 1 -4 -3 -2 1 1 1 2 1 1 1 -5 -4 -3 -1 -2 -4 -7 -10
-6 -7 -10 -6 -3 -4 -8 -9 -8 -7 -6 -4 -3 -4 -5 -3 -1 -3 -4 -1 -1 -2 1 1 1 2 2 -0 -4 -0 -2 -2 -0 1 3 1 -0 -7 -6 -4 -2 -3 -7 -11 -12
-4 -1 -3 -4 -4 -5 -5 -7 -6 -7 -6 -6 -3 -6 -4 -4 -5 -2 -4 -5 -4 -4 -3 0 -1 -0 2 1 -0 2 -1 -3 -1 1 1 0 -4 -4 -4 -4 -4 -5 -9 -10 -7
-4 -3 -5 -2 -4 -6 -5 -5 -6 -5 -7 -6 -5 -5 -2 -2 -3 -4 -4 -5 -5 -5 -4 -2 1 -1 -3 -3 -2 -3 -0 -1 0 -2 2 -0 -2 -4 -3 -2 -2 -5 -9 -8 -10
-3 -3 -3 -4 -6 -5 -5 -6 -6 -6 -5 -5 -4 -5 -4 -1 -2 -2 -2 -3 -3 -5 -2 -3 0 -1 -1 -4 -3 -1 -3 -2 -2 -3 -3 -2 -1 -5 -6 -6 -6 -7 -8 -9 -9
-6 -6 -3 -4 -4 -3 -6 -5 -6 -7 -6 -5 -3 -3 -4 -2 -3 -2 -2 -2 -3 -4 -3 -2 -2 -1 2 -4 -3 0 -1 -2 -2 -3 -3 -2 -3 -5 -5 -6 -4 -4 -7 -7 -6

GFSSW_850_dewp_354.txt.gz
Dewpoint
-18 -20 -21 -22 -22 -22 -22 -22 -22 -23 -24 -24 -24 -24 -25 -26 -28 -25 -9 -5 -4 -4 -4 -11 2 5 6 6 4 1 5 5 4 3 0 -4 -8 -10 -9 -7 -5 -2 1 6 9
-18 -19 -20 -20 -20 -20 -21 -21 -21 -23 -24 -24 -23 -19 -22 -22 -16 -9 -3 -1 -4 -4 -3 -4 -1 1 4 4 4 2 4 3 -0 -2 -1 -4 -6 -8 -9 -8 -3 3 9 8 10
-17 -18 -19 -19 -19 -19 -20 -20 -23 -24 -23 -21 -18 -12 -7 -9 0 3 -0 -3 -1 1 4 4 0 -0 2 4 2 2 4 -0 -3 -3 -4 -3 -4 -6 -7 -5 -6 2 11 11 10
-16 -17 -18 -18 -19 -19 -19 -22 -24 -23 -23 -22 -11 -13 -0 2 -4 4 -1 -0 -2 2 -1 1 2 2 2 3 2 2 1 -0 -2 -5 -4 -3 -4 -4 -6 -5 -6 -3 3 9 10
-16 -17 -17 -18 -18 -19 -20 -24 -24 -23 -24 -19 -16 -10 -0 1 -0 -5 -2 -2 -4 -3 -3 -3 1 2 2 1 1 -0 -2 -4 -3 -4 -4 -4 -4 -4 -5 -5 -3 5 8 9 9
-15 -17 -18 -18 -18 -19 -23 -24 -24 -25 -21 -16 -12 -7 3 0 -3 -4 -4 -3 -3 -3 -2 -4 -3 2 3 -0 1 -1 -2 -4 -5 -6 -5 -4 -4 -5 -5 -5 2 8 8 9 9
-14 -17 -17 -17 -18 -21 -24 -23 -25 -23 -16 -14 -11 -7 -1 -2 -1 -2 -1 -2 -2 -2 -2 -3 -2 3 2 2 -1 -1 -0 -4 -6 -6 -4 -5 -2 -2 -4 -2 2 6 8 9 9
-14 -17 -17 -17 -19 -21 -23 -24 -21 -20 -14 -13 -9 -1 -1 -1 -2 -3 -3 -3 -2 -1 -1 -2 -2 0 3 3 2 -1 2 -1 -5 -5 -5 -4 -0 -4 -4 -1 2 5 8 8 9
-15 -17 -17 -17 -19 -21 -22 -22 -16 -15 -12 -7 -3 -0 -2 -3 -4 -5 -4 -2 -2 -2 -1 -1 -1 -0 1 4 4 1 0 -1 -3 -6 -5 -3 -2 -4 -4 -2 1 4 7 7 9
-15 -16 -16 -18 -21 -20 -20 -19 -16 -9 -6 -6 -2 -2 -1 -5 -5 -5 -3 -2 -2 -3 -3 -2 -0 1 2 4 4 0 -2 -4 -4 -6 -6 -4 -2 -4 -4 -3 -1 4 6 6 8
-15 -15 -16 -19 -21 -16 -11 -10 -6 -6 -9 -2 -4 -3 -4 -5 -4 -4 -2 -1 -0 -1 -1 -3 2 2 1 1 4 -3 -4 -4 -6 -7 -5 -4 -2 -3 -3 -3 -3 2 6 7 6
-15 -15 -16 -20 -18 -10 -3 -5 -2 -3 -1 -6 -4 -4 -5 -5 -5 -5 -2 -0 1 1 -1 1 3 -2 -4 -1 1 0 -1 -1 -2 -2 -2 -2 -2 -3 -2 -2 -3 -2 6 7 7
-15 -15 -17 -21 -15 -11 -5 -5 -4 -1 -1 -4 -6 -6 -6 -6 -6 -3 -1 0 0 1 -1 -1 -1 -2 -3 -3 3 2 2 5 1 0 -0 -1 -0 -1 -2 -2 -1 2 5 6 6
-15 -15 -16 -20 -13 -9 -6 -11 -4 -0 0 -8 -9 -7 -7 -7 -4 -1 1 1 2 2 0 1 0 0 -1 -3 1 5 2 4 3 2 3 -1 2 1 -0 1 -0 2 4 4 3
-16 -16 -17 -18 -13 -5 -11 -10 -3 -1 2 -10 -9 -8 -7 -7 -6 -1 -0 2 2 1 1 1 3 3 2 2 0 2 2 4 4 2 1 1 1 -0 -1 2 1 0 2 2 2
-17 -16 -18 -18 -13 -12 -14 -7 -0 2 -1 -9 -8 -7 -6 -6 -5 -3 -1 1 1 1 0 -0 -3 1 2 2 0 1 3 4 4 4 5 1 1 -2 1 0 -0 -1 1 1 1
-18 -16 -17 -16 -14 -17 -9 -1 2 -1 -8 -6 -5 -6 -4 -4 -3 -1 1 1 2 2 2 -0 -1 -0 1 1 1 0 2 4 4 4 2 -0 1 2 -1 -1 0 -0 0 0 -0
-18 -16 -15 -12 -19 -15 -3 1 -3 -5 -3 -6 -5 -4 -6 -4 -3 -1 0 -0 0 1 3 3 2 -1 -2 1 1 2 1 2 4 1 2 -1 -1 1 -4 -3 -0 -0 -1 -1 -2
-17 -14 -9 -15 -21 -8 -2 -2 -4 -3 -6 -4 -3 -4 -4 -3 -2 -1 0 -0 -1 1 2 3 1 -0 0 -0 -0 0 3 -3 2 2 1 1 -1 -4 -5 -4 -1 -1 -2 -3 -3
-17 -11 -9 -15 -17 -8 -0 -5 -7 -7 -5 -3 -0 -3 -2 -2 -1 1 -1 -1 -0 -1 1 2 3 1 1 1 0 0 -2 1 1 4 5 4 1 -0 -4 -3 -2 -2 -3 -3 -3
-12 -7 -11 -15 -11 -6 -1 -4 -7 -7 -6 -2 -3 -1 -3 -2 -2 -0 -1 -2 -0 -1 1 2 2 0 2 2 2 1 1 0 -1 0 4 0 2 -3 -2 -3 -3 -3 -4 -3 -4
-6 -1 -12 -12 -2 -3 -3 -6 -8 -7 -7 -3 -1 -3 -2 -3 -2 -0 -2 -0 -1 -3 1 1 1 2 -0 -3 -0 1 2 2 2 2 1 3 2 -5 -4 -4 -2 -2 -4 -5 -5
-5 -7 -9 -13 -1 -2 -8 -9 -8 -7 -6 -5 -3 -4 -5 -3 -2 -3 -4 -4 -5 -3 -0 0 -0 2 1 -1 -3 2 -1 0 2 2 2 1 0 -6 -4 -3 -2 -3 -5 -7 -9
-4 1 -2 -5 -5 -4 -4 -5 -5 -7 -6 -6 -5 -5 -3 -4 -5 -3 -4 -5 -6 -4 -4 -2 -1 -1 1 1 -1 1 -0 -2 -0 2 4 -0 -1 -3 -3 -3 -3 -5 -8 -12 -9
-4 -2 -5 -1 -3 -6 -5 -4 -5 -5 -7 -6 -5 -6 -2 -3 -3 -3 -3 -4 -5 -5 -4 -3 0 -2 -3 -3 -2 -2 -2 -2 -1 -2 1 -1 -2 -2 -3 -4 -3 -7 -9 -8 -8
-2 -2 -3 -4 -6 -4 -4 -5 -6 -5 -5 -4 -4 -4 -4 -2 -1 -2 -2 -3 -2 -5 -6 -5 -0 -1 -1 -4 -3 -1 -2 -2 -2 -3 -2 -2 -2 -5 -6 -7 -7 -6 -9 -8 -8
-7 -7 -2 -3 -3 -3 -4 -5 -6 -6 -6 -6 -4 -3 -3 -2 -3 -3 -3 -2 -2 -3 -5 -4 -6 -3 1 -4 -4 -1 -4 -3 -2 -3 -2 -1 -3 -5 -6 -5 -3 -5 -7 -7 -7

GFSSW_850_dewp_357.txt.gz
Dewpoint
-18 -18 -19 -19 -19 -19 -20 -20 -20 -22 -24 -25 -26 -28 -28 -29 -29 -27 -23 -12 -5 -2 -2 -5 -2 1 8 9 6 5 4 5 5 4 2 -2 -3 -8 -9 -6 -0 0 6 5 10
-16 -17 -18 -18 -18 -19 -19 -19 -22 -24 -25 -26 -27 -27 -26 -22 -15 -13 -3 0 0 -3 -3 -3 -5 -2 0 5 6 2 4 3 1 0 0 -1 -4 -6 -9 -4 8 9 7 8 10
-17 -17 -17 -17 -18 -18 -18 -21 -24 -25 -25 -27 -26 -23 -19 -14 -8 2 2 -0 0 -1 -1 1 3 2 1 3 4 5 5 -0 -1 -1 -2 -4 -4 -5 -8 -6 -1 9 10 12 12
-17 -17 -17 -17 -17 -17 -20 -24 -25 -25 -26 -26 -22 -17 -14 -5 -9 4 -1 -2 -3 -4 -2 -1 -1 0 3 3 4 5 4 3 2 0 -0 -3 -4 -4 -6 -5 -6 1 6 10 10
-16 -16 -16 -16 -17 -19 -22 -25 -25 -25 -26 -20 -17 -13 -7 1 -1 -4 -4 -4 -4 -4 -3 -3 -3 -3 0 2 1 4 3 1 1 1 -1 -3 -4 -4 -4 -4 -4 4 9 10 9
-15 -15 -16 -16 -17 -21 -24 -25 -25 -24 -21 -16 -13 -11 -3 1 -3 -2 -3 -4 -3 -2 -2 -2 -2 -3 -1 1 2 0 2 2 -1 -0 -1 -3 -4 -4 -4 0 4 7 10 9 8
-15 -15 -16 -16 -19 -22 -25 -24 -25 -21 -16 -13 -10 -6 -3 -7 -3 -4 -3 -3 -3 -3 -1 -2 -2 -2 0 2 0 2 2 1 0 -3 -4 -5 -3 -3 -4 4 9 9 9 9 9
-14 -14 -15 -17 -21 -23 -23 -24 -23 -22 -14 -9 -6 -1 -2 -2 -3 -3 -5 -6 -5 -3 -2 -1 -1 -2 -1 0 1 2 3 4 1 -3 -5 -4 -1 -4 -4 6 8 8 8 9 9
-13 -15 -15 -19 -21 -22 -21 -24 -22 -18 -11 -13 -4 -1 -1 -4 -5 -6 -5 -4 -2 -2 -2 -2 -0 -0 -1 2 2 3 3 4 3 -1 -4 -3 -2 -4 -5 1 6 8 9 9 9
-13 -14 -17 -20 -22 -18 -22 -20 -17 -13 -15 -8 -2 -4 -4 -8 -6 -6 -5 -3 -1 -1 -1 -2 -3 0 1 2 1 2 3 2 3 -2 -4 -2 -3 -5 -5 1 4 8 9 9 9
-13 -15 -18 -21 -22 -17 -15 -17 -12 -10 -12 -5 -5 -4 -7 -6 -6 -6 -3 -2 -2 -1 1 -0 0 2 1 1 1 3 4 0 0 -3 -4 -3 -3 -4 -3 -1 5 8 8 8 8
-13 -16 -19 -21 -20 -13 -10 -9 -5 -4 -1 -6 -5 -4 -6 -6 -6 -7 -4 -1 0 2 1 1 2 0 -0 -1 0 2 4 4 1 -1 -3 -4 -3 -4 -2 -3 4 7 7 7 7
-14 -17 -19 -21 -20 -18 -7 -9 -9 -3 -2 -5 -6 -6 -7 -7 -6 -3 -2 -1 0 1 1 1 -1 -2 0 -0 1 2 1 4 3 2 2 -2 -1 -0 -2 1 2 6 6 7 7
-15 -19 -18 -21 -17 -17 -11 -12 -7 -1 -2 -9 -9 -7 -8 -6 -4 -2 -1 0 1 2 3 3 1 2 -1 1 -0 2 1 1 4 4 5 3 4 -0 -0 1 4 5 5 6 7
-16 -19 -19 -18 -19 -13 -14 -8 -2 -0 -4 -9 -8 -9 -6 -5 -5 -2 -2 1 2 1 1 -1 2 3 3 1 -1 1 2 3 4 5 3 4 1 0 2 2 3 3 3 5 5
-18 -18 -19 -18 -19 -18 -9 -2 -0 -4 -8 -6 -8 -6 -5 -6 -4 -3 -1 -1 1 1 -1 1 -1 2 2 2 0 2 4 4 4 5 3 -1 -0 -1 1 2 1 2 2 3 3
-19 -18 -16 -16 -17 -14 -5 -2 -5 -6 -7 -5 -5 -5 -4 -4 -3 -2 -1 -2 0 0 2 -1 -2 -2 1 3 2 4 2 4 3 4 4 -1 0 -0 -1 -1 1 1 0 1 1
-19 -18 -14 -15 -18 -11 -5 -5 -6 -4 -4 -6 -5 -3 -4 -4 -4 -2 -1 -2 -2 -1 1 3 1 0 -0 2 3 3 0 2 4 4 3 -1 -1 0 -3 -1 -1 -1 -1 -0 -0
-19 -17 -11 -15 -17 -10 -6 -7 -6 -7 -5 -3 -4 -3 -3 -4 -3 -2 -3 -1 -1 -0 1 1 1 -1 1 0 -0 0 0 -2 1 1 1 0 -2 -4 -3 -1 -2 -2 -1 -2 -2
-17 -10 -9 -16 -15 -11 -6 -6 -6 -7 -5 -3 -2 -2 -0 -4 -3 -3 -5 -2 -1 -3 -1 2 3 1 1 0 -1 -1 -2 -1 -1 1 1 2 1 -0 -3 -1 -2 -4 -3 -2 -2
-12 -7 -10 -15 -14 -11 -7 -5 -6 -7 -5 -2 -2 -1 -2 -4 -6 -1 -6 -4 -2 -2 -2 0 -0 -0 1 1 1 0 -1 -1 -1 0 5 2 3 -4 -4 -5 -4 -3 -2 -2 -3
-7 -4 -11 -15 -7 -4 -7 -7 -8 -7 -7 -4 -2 -1 -2 -4 -3 -4 -5 -3 -4 -4 -1 -1 1 -1 -0 -3 0 1 2 1 -1 0 -1 -0 1 -5 -5 -5 -4 -3 -3 -3 -4
-7 -6 -7 -15 -8 -8 -7 -9 -7 -6 -6 -6 -4 -3 -4 -4 -2 -4 -4 -6 -7 -3 -3 -2 -4 -2 -1 -2 -3 2 -0 0 -0 0 -2 -2 -1 -4 -3 -4 -3 -3 -4 -4 -5
-5 -3 -3 -6 -5 -6 -7 -6 -5 -7 -6 -6 -5 -6 -4 -3 -5 -4 -3 -5 -6 -4 -4 -3 -2 -2 1 1 -0 0 -2 -2 -2 -1 -1 -3 -1 -2 -3 -4 -4 -5 -6 -7 -7
-5 -3 -6 -6 -6 -6 -6 -6 -5 -5 -7 -6 -6 -5 -3 -4 -5 -4 -4 -4 -5 -5 -6 -5 -2 -4 -2 -4 -2 -2 -3 -3 -3 -2 -1 -3 -2 -2 -3 -5 -5 -7 -10 -10 -7
-2 -3 -5 -5 -6 -5 -6 -7 -5 -6 -6 -5 -5 -4 -3 -4 -2 -2 -2 -3 -4 -5 -8 -8 -3 -3 -3 -4 -4 -1 -2 -3 -2 -2 -2 -2 -2 -6 -6 -4 -5 -7 -8 -7 -9
-6 -4 -4 -3 -4 -5 -5 -6 -6 -6 -7 -6 -5 -3 -4 -3 -4 -4 -4 -3 -3 -3 -5 -9 -5 -5 -2 -4 -7 -4 -4 -4 -2 -3 -3 -1 -4 -6 -5 -4 -4 -6 -7 -8 -8

GFSSW_850_dewp_360.txt.gz
Dewpoint
-18 -18 -18 -18 -18 -18 -18 -19 -22 -24 -26 -26 -27 -28 -28 -28 -27 -26 -14 -7 0 2 -3 -3 -5 -1 0 7 9 7 5 5 4 3 0 -1 -2 -2 -8 -3 2 4 4 6 11
-18 -17 -17 -17 -17 -17 -19 -22 -24 -25 -26 -27 -27 -26 -25 -25 -23 -3 1 3 4 -1 -3 -2 1 -5 -4 3 7 4 5 5 1 1 1 -1 -2 -3 -8 2 8 8 7 10 11
-17 -16 -16 -16 -17 -18 -21 -24 -25 -25 -26 -26 -24 -22 -20 -22 -14 3 -0 -2 -3 -3 -3 -1 -1 1 3 -3 4 6 5 2 -0 -1 -1 -1 -3 -4 -7 -5 5 9 10 12 12
-17 -16 -16 -16 -17 -20 -23 -25 -25 -26 -26 -24 -19 -17 -16 -14 -18 2 -0 -4 -5 -4 -4 -4 -3 -2 2 3 1 3 3 3 2 1 2 0 -0 -3 -5 -7 -5 5 10 11 10
-17 -16 -15 -16 -19 -22 -24 -25 -25 -26 -25 -18 -16 -15 -12 -10 -6 -2 -2 -3 -3 -2 -2 -2 -2 -3 -2 -0 1 2 2 2 2 3 3 2 0 -2 -4 -5 1 9 10 10 11
-16 -14 -15 -17 -20 -22 -25 -26 -26 -25 -22 -14 -13 -12 -8 -5 -3 -2 -3 -4 -4 -5 -4 -2 -2 -2 -2 -2 0 -1 1 1 2 2 2 1 -1 -3 -2 2 7 10 10 10 9
-15 -14 -15 -18 -20 -23 -25 -26 -26 -26 -18 -14 -11 -7 -4 -2 -3 -3 -4 -6 -5 -3 -4 -3 -1 -2 -2 -0 -1 1 2 0 1 2 1 -0 -2 -3 -2 7 9 9 9 9 10
-14 -14 -16 -19 -22 -23 -24 -25 -28 -21 -14 -15 -11 -3 -3 -4 -6 -5 -6 -5 -4 -3 -2 -2 -2 -1 -0 -1 -0 1 1 3 -2 1 2 -1 1 -4 2 6 8 8 8 9 8
-14 -14 -17 -20 -22 -23 -24 -26 -26 -15 -15 -13 -5 -3 -4 -6 -7 -8 -7 -6 -4 -3 -2 -1 -2 -2 1 1 2 1 -0 3 3 0 1 -1 -1 -4 1 5 8 8 8 9 8
-14 -14 -18 -21 -22 -21 -23 -27 -24 -16 -11 -9 -8 -7 -8 -7 -7 -7 -6 -5 -3 -2 -2 -1 -2 0 0 2 1 -0 2 2 3 1 2 1 -3 -4 -3 5 8 8 8 8 8
-15 -14 -18 -21 -21 -20 -22 -24 -18 -17 -8 -8 -6 -5 -6 -7 -6 -5 -3 -2 -2 -1 1 1 1 1 -0 -0 1 -0 1 3 3 1 1 3 2 -3 -5 3 7 8 7 8 7
-15 -15 -19 -21 -19 -21 -19 -13 -7 -7 -3 -7 -5 -5 -7 -6 -6 -2 -3 -2 -0 1 -0 1 2 -1 -2 1 2 1 2 2 2 1 1 1 -0 -3 -2 1 6 7 7 7 7
-15 -16 -19 -21 -20 -22 -16 -11 -5 -2 -2 -8 -7 -6 -8 -6 -5 -2 -1 -1 0 1 0 2 0 1 0 3 1 1 1 2 3 2 -1 -1 -1 0 1 2 6 7 7 7 8
-15 -18 -19 -19 -19 -21 -14 -6 -2 -1 -5 -11 -9 -8 -7 -7 -5 -4 -3 -1 0 1 0 1 1 2 1 2 0 -1 -0 -1 2 4 2 1 -0 -0 0 3 5 5 6 6 7
-15 -18 -19 -17 -18 -16 -9 -3 -1 -0 -9 -11 -8 -8 -6 -6 -6 -4 -4 -1 -0 -1 0 -2 0 1 3 1 -1 -0 1 2 3 4 4 3 1 -1 1 3 4 4 4 6 6
-15 -19 -18 -17 -17 -16 -8 -3 -1 -8 -12 -6 -7 -6 -5 -6 -6 -4 -4 -4 -1 -1 -1 -0 -1 2 2 2 1 2 2 3 3 1 2 4 2 0 2 1 3 3 2 4 5
-16 -18 -16 -17 -18 -17 -9 -3 -6 -9 -7 -6 -5 -5 -4 -4 -4 -3 -2 -4 -1 -1 -3 -1 -1 -2 1 2 1 2 1 3 2 2 2 2 2 1 -2 -1 0 2 1 2 4
-16 -17 -14 -16 -16 -15 -8 -8 -9 -5 -4 -6 -5 -4 -4 -4 -5 -3 -3 -2 -3 -2 -2 -0 -1 -2 -0 2 3 2 1 3 3 4 4 3 1 -0 -1 -2 -0 1 -0 1 2
-17 -15 -10 -17 -16 -15 -10 -6 -6 -7 -6 -3 -4 -3 -3 -4 -4 -4 -5 -2 -2 -2 -1 -2 -0 -1 -1 0 0 -0 1 -2 1 2 3 1 -2 -3 -2 -1 -2 -2 -1 -1 -0
-17 -12 -10 -18 -15 -16 -6 -6 -6 -7 -5 -3 -3 -3 -1 -2 -4 -5 -6 -4 -3 -3 -2 1 -1 1 0 -2 -2 -1 -2 -1 0 -1 1 2 1 0 -3 -1 -2 -3 -4 -2 -2
-15 -10 -9 -18 -17 -16 -8 -6 -6 -8 -6 -2 -3 -1 -2 -3 -8 -7 -7 -5 -4 -3 -3 -1 -1 -2 -1 0 1 1 -1 -1 -2 -0 3 3 2 -5 -5 -6 -4 -5 -4 -3 -2
-12 -7 -11 -17 -10 -7 -7 -7 -7 -7 -7 -4 -2 -1 -2 -3 -6 -5 -5 -5 -5 -4 -5 -4 0 -2 -1 -3 -0 1 2 -0 -2 -2 -1 -1 0 -5 -5 -5 -4 -3 -3 -3 -3
-10 -7 -8 -16 -9 -8 -8 -9 -7 -6 -6 -6 -5 -4 -4 -4 -5 -4 -4 -6 -7 -4 -3 -4 -5 -4 -4 -4 -4 2 0 -1 -2 -3 -1 -1 -1 -3 -4 -4 -4 -4 -4 -4 -4
-9 -6 -6 -10 -6 -8 -7 -7 -5 -7 -6 -6 -5 -5 -4 -4 -5 -4 -4 -5 -7 -4 -5 -3 -4 -2 0 -1 -0 1 -2 -3 -2 -2 -4 -4 -1 -3 -3 -4 -5 -4 -4 -5 -6
-7 -3 -7 -5 -6 -6 -7 -6 -5 -5 -7 -6 -6 -5 -3 -4 -6 -5 -4 -5 -6 -5 -7 -7 -3 -3 -2 -3 -2 -2 -3 -3 -4 -2 -3 -4 -3 -3 -4 -6 -5 -5 -7 -8 -6
-4 -5 -6 -5 -6 -6 -6 -6 -5 -6 -7 -6 -6 -5 -4 -4 -4 -2 -3 -4 -4 -5 -10 -9 -4 -4 -4 -4 -3 -2 -3 -3 -3 -2 -3 -3 -3 -6 -5 -5 -6 -8 -10 -8 -8
-7 -4 -6 -4 -4 -6 -5 -6 -6 -7 -8 -6 -5 -5 -4 -5 -4 -5 -4 -3 -3 -3 -4 -9 -6 -4 -4 -5 -8 -5 -5 -4 -2 -4 -3 -2 -4 -5 -4 -5 -6 -7 -7 -7 -8

GFSSW_850_dewp_366.txt.gz
Dewpoint
-18 -17 -16 -17 -19 -22 -23 -25 -26 -27 -27 -27 -28 -26 -23 -16 -3 -1 -1 1 3 0 -7 -9 -11 -9 -7 -4 4 5 6 5 3 1 -2 -2 -2 -3 -6 -3 2 5 6 8 12
-17 -16 -16 -18 -20 -22 -24 -25 -26 -27 -27 -27 -27 -24 -22 -11 -2 -2 2 2 1 -4 -6 -6 -6 -6 -7 -1 1 6 5 4 1 -0 -0 -1 -1 -1 -3 -1 5 6 5 10 11
-16 -16 -16 -18 -20 -23 -24 -25 -26 -26 -28 -28 -24 -20 -21 -15 -0 -2 1 1 0 -4 -6 -6 -5 -5 0 1 -1 3 4 3 1 0 2 1 1 1 1 -4 1 2 6 12 12
-16 -15 -16 -17 -20 -22 -24 -26 -26 -28 -27 -22 -19 -22 -14 -12 -4 -2 -3 -4 -5 -6 -6 -5 -4 -3 -3 0 1 1 -1 -2 -1 0 0 3 3 3 3 -1 -1 -2 -2 11 12
-17 -15 -15 -17 -19 -22 -24 -25 -27 -27 -19 -18 -19 -11 -9 -5 -4 -4 -4 -5 -6 -5 -4 -4 -4 -2 -2 -3 -3 -2 -3 -2 -2 -1 -1 -0 3 3 2 2 0 -3 4 10 11
-18 -16 -15 -16 -18 -22 -24 -27 -28 -20 -18 -16 -10 -5 -5 -3 -7 -7 -7 -7 -7 -6 -5 -4 -3 -3 -2 -2 -2 -2 -2 -1 -1 -2 -2 -1 1 3 0 0 -0 6 9 9 11
-19 -17 -15 -16 -18 -21 -24 -27 -27 -17 -14 -12 -7 -8 -9 -8 -7 -6 -7 -6 -6 -5 -6 -5 -3 -2 -2 -1 -1 -0 1 -0 -1 -2 -2 -2 1 1 1 1 1 5 8 10 11
-18 -17 -16 -15 -17 -20 -24 -27 -25 -17 -13 -11 -5 -7 -7 -8 -7 -4 -5 -8 -5 -6 -4 -3 -2 -2 -2 -2 -0 1 0 2 -4 -5 -3 -1 -0 -4 -0 0 3 5 8 10 10
-13 -17 -16 -16 -17 -18 -24 -25 -19 -12 -11 -12 -9 -10 -9 -9 -7 -4 -5 -7 -6 -4 -2 -2 -1 -1 0 1 2 1 1 0 -1 -5 -4 0 -2 -3 -3 -0 4 6 6 9 9
-4 -11 -16 -16 -18 -19 -24 -21 -10 -10 -11 -12 -10 -12 -9 -7 -6 -6 -5 -7 -3 -2 -2 -1 -1 -0 0 2 0 -1 1 -0 -0 -2 0 0 -0 -2 -1 0 3 4 6 9 9
-2 -6 -16 -16 -18 -20 -23 -24 -15 -15 -9 -7 -6 -7 -7 -8 -6 -5 -6 -7 -3 -1 -0 -0 1 -0 -1 -1 -1 0 1 1 -1 -2 -1 -0 1 -2 -1 2 4 5 4 8 8
1 -7 -16 -17 -18 -21 -20 -9 -3 -7 -6 -10 -7 -7 -8 -7 -6 -6 -6 -4 -0 -1 -3 -1 -1 -2 1 1 2 0 2 1 -1 -2 2 1 1 1 -0 2 4 5 4 8 8
1 -5 -16 -18 -17 -20 -16 -7 -3 -5 -5 -13 -9 -8 -8 -7 -6 -6 -5 -4 -0 -2 -2 -1 -2 -2 0 0 3 2 2 0 1 2 1 1 3 2 2 3 4 5 2 5 7
1 -6 -15 -17 -16 -18 -14 -7 -2 -2 -7 -14 -11 -8 -8 -8 -6 -7 -6 -2 -2 -1 -1 -1 -2 -0 0 2 2 2 -1 0 1 3 3 3 3 2 3 4 4 5 6 6 3
1 -10 -16 -16 -17 -16 -13 -7 -2 -3 -12 -13 -9 -9 -8 -7 -7 -7 -6 -5 -1 -1 -2 -2 -1 -0 1 2 2 0 -1 0 3 3 3 3 2 2 4 3 3 4 5 6 6
-1 -13 -16 -15 -17 -16 -13 -5 -3 -7 -15 -8 -8 -6 -5 -6 -7 -6 -6 -5 -4 -4 -4 -2 -3 -1 2 0 2 1 2 3 3 1 2 2 3 2 1 0 1 3 1 3 4
-3 -15 -15 -13 -16 -16 -13 -7 -7 -9 -10 -7 -5 -5 -4 -4 -5 -5 -4 -6 -3 -4 -5 -5 -4 -3 1 1 -1 2 1 -3 -0 -1 2 1 1 0 -0 -1 -1 1 0 1 3
1 -15 -15 -12 -17 -17 -14 -9 -15 -8 -5 -6 -5 -4 -5 -4 -5 -5 -5 -4 -5 -3 -4 -3 -3 -3 -3 2 3 2 3 0 1 2 2 2 1 -0 -1 -1 -0 -0 -0 0 1
2 -11 -12 -13 -18 -21 -15 -9 -10 -8 -7 -4 -5 -4 -4 -4 -5 -6 -7 -4 -4 -5 -3 -4 -3 -6 -2 -1 1 1 3 -1 3 1 -0 2 0 -1 -1 -1 -1 -1 -1 -1 -0
2 -13 -10 -13 -18 -21 -7 -7 -6 -7 -6 -4 -3 -3 -2 -3 -5 -7 -8 -6 -4 -6 -4 -3 -2 -5 -4 -3 -2 0 -1 0 0 3 3 2 2 0 -2 -2 -1 -1 -2 -2 -1
-0 -12 -10 -13 -18 -20 -9 -8 -7 -8 -6 -3 -4 -4 -3 -4 -8 -6 -8 -6 -5 -5 -6 -3 -3 -5 -4 0 1 1 0 0 -2 1 1 3 2 -4 -4 -5 -4 -3 -3 -3 -2
0 -9 -9 -15 -14 -8 -7 -7 -7 -7 -6 -5 -3 -3 -2 -3 -8 -5 -7 -6 -6 -5 -4 -4 -3 -4 -3 -5 -5 1 1 -1 1 0 -2 -1 0 -3 -5 -5 -5 -4 -4 -4 -3
-2 -11 -9 -16 -10 -10 -8 -8 -7 -7 -7 -6 -5 -4 -5 -4 -6 -5 -5 -6 -7 -5 -3 -5 -6 -6 -6 -6 -5 -2 -1 -2 -3 -4 -3 -3 -1 -5 -5 -5 -4 -4 -5 -4 -4
2 -4 -13 -15 -12 -10 -8 -8 -6 -7 -7 -6 -5 -6 -5 -5 -5 -5 -5 -6 -7 -5 -5 -5 -4 -4 -3 -1 -1 -2 -2 -2 -5 -2 -5 -4 -2 -4 -4 -4 -5 -5 -5 -5 -5
0 -6 -8 -8 -9 -9 -10 -7 -5 -6 -7 -7 -6 -6 -6 -5 -5 -6 -5 -6 -6 -5 -7 -8 -4 -6 -5 -4 -3 -1 -2 -3 -4 -3 -4 -4 -4 -4 -5 -5 -5 -6 -6 -5 -5
1 -1 -5 -7 -7 -7 -7 -8 -6 -6 -8 -6 -7 -6 -5 -5 -7 -8 -4 -4 -5 -6 -10 -11 -7 -5 -7 -5 -6 -2 -5 -4 -4 -3 -4 -4 -4 -6 -5 -5 -6 -5 -6 -6 -5
1 -0 -5 -6 -6 -8 -7 -7 -6 -7 -8 -7 -6 -6 -5 -5 -5 -5 -5 -4 -3 -4 -5 -10 -10 -6 -5 -7 -10 -6 -6 -5 -4 -6 -4 -3 -4 -5 -6 -6 -6 -8 -10 -9 -7